| time (UTC) | temp C | wind direction | speed KPH | gust KPH | rain 1hr cm | rain 24hr cm | rain mn cm | humidity % | barometer mb |
| 20260509112221 | 8 | 87 | 1.6 | 1.6 | 0.00 | 0.00 | 0.00 | 71 | 1009.0 |
| 20260509111718 | 8 | 87 | 1.6 | 1.6 | 0.00 | 0.00 | 0.00 | 71 | 1008.7 |
| 20260509111215 | 8 | 87 | 1.6 | 1.6 | 0.00 | 0.00 | 0.00 | 71 | 1008.8 |
| 20260509110713 | 7 | 87 | 0.0 | 1.6 | 0.00 | 0.00 | 0.00 | 72 | 1008.9 |
| 20260509110209 | 7 | 87 | 1.6 | 1.6 | 0.00 | 0.00 | 0.00 | 73 | 1009.0 |
| 20260509105707 | 7 | 87 | 1.6 | 1.6 | 0.00 | 0.00 | 0.00 | 72 | 1008.8 |
| 20260509105204 | 7 | 87 | 1.6 | 1.6 | 0.00 | 0.00 | 0.00 | 72 | 1008.9 |
| 20260509104701 | 7 | 87 | 1.6 | 1.6 | 0.00 | 0.00 | 0.00 | 72 | 1008.7 |
| 20260509104158 | 7 | 87 | 1.6 | 1.6 | 0.00 | 0.00 | 0.00 | 71 | 1008.7 |
| 20260509103656 | 7 | 87 | 0.0 | 1.6 | 0.00 | 0.00 | 0.00 | 71 | 1008.7 |
| 20260509103153 | 7 | 87 | 1.6 | 1.6 | 0.00 | 0.00 | 0.00 | 70 | 1008.5 |
| 20260509102651 | 7 | 87 | 0.0 | 1.6 | 0.00 | 0.00 | 0.00 | 71 | 1008.5 |
| 20260509102148 | 7 | 87 | 1.6 | 1.6 | 0.00 | 0.00 | 0.00 | 70 | 1008.5 |
| 20260509101644 | 7 | 87 | 1.6 | 1.6 | 0.00 | 0.00 | 0.00 | 70 | 1008.5 |
| 20260509101141 | 7 | 86 | 1.6 | 1.6 | 0.00 | 0.00 | 0.00 | 70 | 1008.4 |
| 20260509100638 | 6 | 86 | 1.6 | 1.6 | 0.00 | 0.00 | 0.00 | 69 | 1008.5 |
| 20260509100135 | 6 | 86 | 0.0 | 0.0 | 0.00 | 0.00 | 0.00 | 67 | 1008.4 |
| 20260509095632 | 6 | 86 | 0.0 | 0.0 | 0.00 | 0.00 | 0.00 | 69 | 1008.5 |
| 20260509095129 | 6 | 86 | 0.0 | 0.0 | 0.00 | 0.00 | 0.00 | 70 | 1008.5 |
| 20260509094626 | 6 | 86 | 0.0 | 0.0 | 0.00 | 0.00 | 0.00 | 69 | 1008.5 |
| 20260509094123 | 6 | 86 | 0.0 | 1.6 | 0.00 | 0.00 | 0.00 | 67 | 1008.6 |
| 20260509093622 | 6 | 86 | 1.6 | 1.6 | 0.00 | 0.00 | 0.00 | 66 | 1008.5 |
| 20260509093118 | 6 | 86 | 1.6 | 1.6 | 0.00 | 0.00 | 0.00 | 64 | 1008.5 |
| 20260509092616 | 6 | 86 | 1.6 | 1.6 | 0.00 | 0.00 | 0.00 | 64 | 1008.5 |
| 20260509092114 | 6 | 86 | 1.6 | 1.6 | 0.00 | 0.00 | 0.00 | 64 | 1008.7 |
| 20260509091612 | 6 | 85 | 1.6 | 1.6 | 0.00 | 0.00 | 0.00 | 64 | 1008.4 |
| 20260509091108 | 6 | 85 | 1.6 | 3.2 | 0.00 | 0.00 | 0.00 | 64 | 1008.7 |
| 20260509090606 | 6 | 85 | 1.6 | 1.6 | 0.00 | 0.00 | 0.00 | 65 | 1008.7 |
| 20260509085600 | 6 | 85 | 0.0 | 1.6 | 0.00 | 0.00 | 0.00 | 65 | 1008.5 |
| 20260509085056 | 6 | 85 | 1.6 | 1.6 | 0.00 | 0.00 | 0.00 | 64 | 1008.7 |
| 20260509084553 | 6 | 85 | 1.6 | 1.6 | 0.00 | 0.00 | 0.00 | 64 | 1008.7 |
| 20260509084050 | 6 | 85 | 1.6 | 1.6 | 0.00 | 0.00 | 0.00 | 62 | 1008.7 |
| 20260509083548 | 6 | 85 | 1.6 | 1.6 | 0.00 | 0.00 | 0.00 | 62 | 1008.7 |
| 20260509083044 | 6 | 85 | 1.6 | 1.6 | 0.00 | 0.00 | 0.00 | 62 | 1008.8 |
| 20260509082542 | 6 | 85 | 1.6 | 3.2 | 0.00 | 0.00 | 0.00 | 62 | 1008.9 |
| 20260509082039 | 6 | 85 | 1.6 | 1.6 | 0.00 | 0.00 | 0.00 | 61 | 1008.7 |
| 20260509081536 | 6 | 85 | 1.6 | 1.6 | 0.00 | 0.00 | 0.00 | 62 | 1008.7 |
| 20260509081032 | 6 | 85 | 1.6 | 1.6 | 0.00 | 0.00 | 0.00 | 61 | 1009.0 |
| 20260509080531 | 6 | 85 | 1.6 | 1.6 | 0.00 | 0.00 | 0.00 | 61 | 1009.0 |
| 20260509080029 | 6 | 85 | 1.6 | 1.6 | 0.00 | 0.00 | 0.00 | 62 | 1008.9 |
| 20260509075525 | 6 | 85 | 1.6 | 1.6 | 0.00 | 0.00 | 0.00 | 62 | 1009.1 |
| 20260509075024 | 6 | 85 | 1.6 | 1.6 | 0.00 | 0.00 | 0.00 | 62 | 1008.9 |
| 20260509074520 | 6 | 85 | 1.6 | 1.6 | 0.00 | 0.00 | 0.00 | 63 | 1008.9 |
| 20260509074017 | 6 | 85 | 0.0 | 1.6 | 0.00 | 0.00 | 0.00 | 63 | 1009.1 |
| 20260509073513 | 6 | 85 | 1.6 | 1.6 | 0.00 | 0.00 | 0.00 | 64 | 1009.1 |
| 20260509073010 | 6 | 85 | 1.6 | 1.6 | 0.00 | 0.00 | 0.00 | 66 | 1009.3 |
| 20260509072506 | 6 | 85 | 1.6 | 1.6 | 0.00 | 0.00 | 0.00 | 68 | 1009.4 |
| 20260509072003 | 5 | 85 | 1.6 | 1.6 | 0.00 | 0.00 | 0.00 | 72 | 1009.2 |
| 20260509071500 | 5 | 85 | 0.0 | 1.6 | 0.00 | 0.00 | 0.00 | 73 | 1009.6 |
| 20260509070958 | 5 | 85 | 1.6 | 1.6 | 0.00 | 0.00 | 0.00 | 70 | 1009.3 |
| 20260509070454 | 5 | 85 | 1.6 | 1.6 | 0.00 | 0.00 | 0.00 | 73 | 1009.4 |
| 20260509065950 | 5 | 85 | 0.0 | 0.0 | 0.00 | 0.00 | 0.00 | 71 | 1009.6 |
| 20260509065446 | 6 | 85 | 0.0 | 0.0 | 0.00 | 0.00 | 0.00 | 67 | 1009.5 |
| 20260509064942 | 6 | 85 | 1.6 | 1.6 | 0.00 | 0.00 | 0.00 | 67 | 1009.6 |
| 20260509064440 | 6 | 85 | 1.6 | 1.6 | 0.00 | 0.00 | 0.00 | 66 | 1009.8 |
| 20260509063938 | 6 | 85 | 1.6 | 1.6 | 0.00 | 0.00 | 0.00 | 66 | 1009.8 |
| 20260509063439 | 6 | 85 | 1.6 | 1.6 | 0.00 | 0.00 | 0.00 | 67 | 1009.9 |
| 20260509062936 | 6 | 85 | 1.6 | 1.6 | 0.00 | 0.00 | 0.00 | 68 | 1009.7 |
| 20260509062433 | 6 | 85 | 0.0 | 0.0 | 0.00 | 0.00 | 0.00 | 67 | 1010.1 |
| 20260509061931 | 6 | 85 | 1.6 | 1.6 | 0.00 | 0.00 | 0.00 | 66 | 1010.2 |
| 20260509061428 | 6 | 85 | 1.6 | 1.6 | 0.00 | 0.00 | 0.00 | 67 | 1010.1 |
| 20260509060925 | 6 | 85 | 1.6 | 1.6 | 0.00 | 0.00 | 0.00 | 67 | 1010.1 |
| 20260509060423 | 6 | 85 | 1.6 | 1.6 | 0.00 | 0.00 | 0.00 | 66 | 1010.1 |
| 20260509055917 | 6 | 85 | 1.6 | 1.6 | 0.00 | 0.00 | 0.00 | 67 | 1010.2 |
| 20260509055413 | 6 | 85 | 1.6 | 1.6 | 0.00 | 0.00 | 0.00 | 67 | 1010.2 |
| 20260509054910 | 6 | 85 | 1.6 | 1.6 | 0.00 | 0.00 | 0.00 | 67 | 1010.2 |
| 20260509054407 | 6 | 85 | 0.0 | 1.6 | 0.00 | 0.00 | 0.00 | 68 | 1010.3 |
| 20260509053905 | 6 | 85 | 1.6 | 1.6 | 0.00 | 0.00 | 0.00 | 69 | 1010.4 |
| 20260509053402 | 6 | 84 | 1.6 | 1.6 | 0.00 | 0.00 | 0.00 | 71 | 1010.4 |
| 20260509052900 | 6 | 84 | 1.6 | 1.6 | 0.00 | 0.00 | 0.00 | 71 | 1010.3 |
| 20260509052357 | 6 | 84 | 1.6 | 1.6 | 0.00 | 0.00 | 0.00 | 74 | 1010.5 |
| 20260509051855 | 6 | 84 | 0.0 | 1.6 | 0.00 | 0.00 | 0.00 | 70 | 1010.6 |
| 20260509051353 | 6 | 84 | 1.6 | 1.6 | 0.00 | 0.00 | 0.00 | 72 | 1010.8 |
| 20260509050849 | 6 | 84 | 1.6 | 1.6 | 0.00 | 0.00 | 0.00 | 73 | 1010.7 |
| 20260509050346 | 6 | 84 | 0.0 | 1.6 | 0.00 | 0.00 | 0.00 | 75 | 1010.7 |
| 20260509045843 | 6 | 84 | 0.0 | 1.6 | 0.00 | 0.00 | 0.00 | 74 | 1010.9 |
| 20260509045340 | 5 | 84 | 0.0 | 1.6 | 0.00 | 0.00 | 0.00 | 76 | 1010.9 |
| 20260509044837 | 6 | 84 | 0.0 | 0.0 | 0.00 | 0.00 | 0.00 | 80 | 1011.1 |
| 20260509044335 | 6 | 84 | 0.0 | 0.0 | 0.00 | 0.00 | 0.00 | 76 | 1010.9 |
| 20260509043831 | 6 | 84 | 0.0 | 0.0 | 0.00 | 0.00 | 0.00 | 78 | 1011.1 |
| 20260509043327 | 6 | 84 | 0.0 | 0.0 | 0.00 | 0.00 | 0.00 | 79 | 1011.0 |
| 20260509042823 | 6 | 84 | 0.0 | 0.0 | 0.00 | 0.00 | 0.00 | 78 | 1011.2 |
| 20260509042320 | 6 | 84 | 0.0 | 0.0 | 0.00 | 0.00 | 0.00 | 79 | 1011.2 |
| 20260509041816 | 5 | 84 | 0.0 | 0.0 | 0.00 | 0.00 | 0.00 | 82 | 1011.3 |
| 20260509041314 | 5 | 84 | 1.6 | 1.6 | 0.00 | 0.00 | 0.00 | 86 | 1011.2 |
| 20260509040812 | 5 | 84 | 0.0 | 1.6 | 0.00 | 0.00 | 0.00 | 84 | 1011.2 |
| 20260509040309 | 5 | 84 | 0.0 | 1.6 | 0.00 | 0.00 | 0.00 | 82 | 1011.2 |
| 20260509035806 | 5 | 84 | 1.6 | 1.6 | 0.00 | 0.13 | 0.13 | 85 | 1011.3 |
| 20260509035306 | 5 | 84 | 0.0 | 0.0 | 0.00 | 0.13 | 0.13 | 86 | 1011.3 |
| 20260509034759 | 5 | 84 | 0.0 | 0.0 | 0.00 | 0.13 | 0.13 | 85 | 1011.3 |
| 20260509034257 | 5 | 84 | 0.0 | 0.0 | 0.00 | 0.13 | 0.13 | 85 | 1011.3 |
| 20260509033754 | 5 | 84 | 0.0 | 0.0 | 0.00 | 0.13 | 0.13 | 86 | 1011.2 |
| 20260509033251 | 5 | 84 | 0.0 | 0.0 | 0.00 | 0.13 | 0.13 | 86 | 1011.3 |
| 20260509032748 | 5 | 84 | 0.0 | 0.0 | 0.00 | 0.13 | 0.13 | 87 | 1011.5 |
| 20260509032244 | 5 | 84 | 0.0 | 0.0 | 0.00 | 0.13 | 0.13 | 87 | 1011.3 |
| 20260509031742 | 5 | 84 | 0.0 | 0.0 | 0.00 | 0.13 | 0.13 | 87 | 1011.6 |
| 20260509031240 | 6 | 84 | 0.0 | 0.0 | 0.00 | 0.13 | 0.13 | 87 | 1011.5 |
| 20260509030737 | 6 | 84 | 0.0 | 0.0 | 0.00 | 0.13 | 0.13 | 84 | 1011.4 |
| 20260509030235 | 6 | 84 | 0.0 | 0.0 | 0.00 | 0.13 | 0.13 | 83 | 1011.6 |
| 20260509025732 | 6 | 84 | 0.0 | 0.0 | 0.00 | 0.13 | 0.13 | 85 | 1011.3 |
| 20260509025227 | 6 | 84 | 0.0 | 0.0 | 0.00 | 0.13 | 0.13 | 82 | 1011.5 |
| 20260509024722 | 6 | 84 | 0.0 | 0.0 | 0.00 | 0.13 | 0.13 | 82 | 1011.5 |
| 20260509024218 | 6 | 84 | 1.6 | 1.6 | 0.00 | 0.13 | 0.13 | 85 | 1011.5 |
| 20260509023716 | 6 | 84 | 0.0 | 0.0 | 0.00 | 0.13 | 0.13 | 76 | 1011.5 |
| 20260509023213 | 6 | 84 | 0.0 | 0.0 | 0.00 | 0.13 | 0.13 | 74 | 1011.4 |
| 20260509022709 | 6 | 84 | 0.0 | 0.0 | 0.00 | 0.13 | 0.13 | 75 | 1011.5 |
| 20260509022207 | 7 | 84 | 0.0 | 0.0 | 0.00 | 0.13 | 0.13 | 77 | 1011.2 |
| 20260509021704 | 7 | 84 | 0.0 | 0.0 | 0.00 | 0.13 | 0.13 | 72 | 1011.5 |
| 20260509021201 | 7 | 84 | 0.0 | 0.0 | 0.00 | 0.13 | 0.13 | 72 | 1011.4 |
| 20260509020659 | 7 | 84 | 0.0 | 0.0 | 0.00 | 0.13 | 0.13 | 73 | 1011.4 |
| 20260509020156 | 7 | 84 | 0.0 | 0.0 | 0.00 | 0.13 | 0.13 | 74 | 1011.5 |
| 20260509015654 | 7 | 84 | 0.0 | 0.0 | 0.00 | 0.13 | 0.13 | 73 | 1011.2 |
| 20260509015152 | 7 | 84 | 0.0 | 0.0 | 0.00 | 0.13 | 0.13 | 77 | 1011.6 |
| 20260509014648 | 7 | 84 | 0.0 | 0.0 | 0.00 | 0.13 | 0.13 | 73 | 1011.6 |
| 20260509014145 | 7 | 84 | 0.0 | 0.0 | 0.00 | 0.13 | 0.13 | 73 | 1011.7 |
| 20260509013642 | 7 | 84 | 0.0 | 0.0 | 0.00 | 0.13 | 0.13 | 74 | 1011.5 |
| 20260509013138 | 8 | 84 | 0.0 | 0.0 | 0.00 | 0.13 | 0.13 | 74 | 1011.6 |
| 20260509012634 | 8 | 84 | 0.0 | 0.0 | 0.00 | 0.13 | 0.13 | 72 | 1011.5 |
| 20260509012131 | 8 | 84 | 0.0 | 0.0 | 0.00 | 0.13 | 0.13 | 72 | 1011.2 |
| 20260509011630 | 8 | 84 | 0.0 | 0.0 | 0.00 | 0.13 | 0.13 | 76 | 1011.7 |
| 20260509011126 | 8 | 84 | 0.0 | 0.0 | 0.00 | 0.13 | 0.13 | 76 | 1011.3 |
| 20260509010624 | 8 | 84 | 0.0 | 0.0 | 0.00 | 0.13 | 0.13 | 75 | 1011.3 |
| 20260509010120 | 8 | 84 | 0.0 | 0.0 | 0.00 | 0.13 | 0.13 | 71 | 1011.2 |
| 20260509005618 | 8 | 84 | 0.0 | 0.0 | 0.00 | 0.13 | 0.13 | 71 | 1011.2 |
| 20260509005113 | 9 | 84 | 0.0 | 0.0 | 0.00 | 0.13 | 0.13 | 68 | 1011.0 |
| 20260509004610 | 9 | 84 | 0.0 | 0.0 | 0.00 | 0.13 | 0.13 | 66 | 1011.2 |
| 20260509004107 | 9 | 84 | 0.0 | 0.0 | 0.00 | 0.13 | 0.13 | 64 | 1010.9 |
| 20260509003605 | 10 | 84 | 0.0 | 0.0 | 0.00 | 0.13 | 0.13 | 63 | 1010.9 |
| 20260509003102 | 10 | 84 | 0.0 | 0.0 | 0.00 | 0.13 | 0.13 | 65 | 1010.8 |
| 20260509002600 | 10 | 84 | 0.0 | 0.0 | 0.00 | 0.13 | 0.13 | 62 | 1010.7 |
| 20260509002057 | 10 | 84 | 0.0 | 0.0 | 0.00 | 0.13 | 0.13 | 59 | 1010.7 |
| 20260509001554 | 10 | 84 | 0.0 | 0.0 | 0.00 | 0.13 | 0.13 | 59 | 1010.8 |
| 20260509001050 | 10 | 84 | 0.0 | 0.0 | 0.00 | 0.13 | 0.13 | 60 | 1010.8 |
| 20260509000549 | 11 | 84 | 0.0 | 1.6 | 0.00 | 0.13 | 0.13 | 55 | 1010.8 |
| 20260509000044 | 11 | 84 | 0.0 | 1.6 | 0.00 | 0.13 | 0.13 | 54 | 1010.7 |
| 20260508235542 | 11 | 84 | 1.6 | 1.6 | 0.00 | 0.13 | 0.13 | 52 | 1010.7 |
| 20260508235038 | 11 | 84 | 0.0 | 0.0 | 0.00 | 0.13 | 0.13 | 51 | 1010.8 |
| 20260508234536 | 11 | 84 | 0.0 | 0.0 | 0.00 | 0.13 | 0.13 | 49 | 1010.6 |
| 20260508234032 | 11 | 84 | 0.0 | 0.0 | 0.00 | 0.13 | 0.13 | 49 | 1010.7 |
| 20260508233532 | 11 | 84 | 0.0 | 1.6 | 0.00 | 0.13 | 0.13 | 47 | 1010.7 |
| 20260508233029 | 11 | 84 | 0.0 | 1.6 | 0.00 | 0.13 | 0.13 | 49 | 1010.6 |
| 20260508232526 | 11 | 85 | 0.0 | 0.0 | 0.00 | 0.13 | 0.13 | 49 | 1010.6 |
| 20260508232023 | 11 | 87 | 0.0 | 0.0 | 0.00 | 0.13 | 0.13 | 49 | 1010.7 |
| 20260508231520 | 11 | 87 | 0.0 | 0.0 | 0.00 | 0.13 | 0.13 | 46 | 1010.6 |
| 20260508231017 | 11 | 80 | 0.0 | 0.0 | 0.00 | 0.13 | 0.13 | 47 | 1010.6 |
| 20260508230514 | 12 | 80 | 0.0 | 3.2 | 0.00 | 0.13 | 0.13 | 45 | 1010.7 |
| 20260508230010 | 12 | 80 | 1.6 | 1.6 | 0.00 | 0.13 | 0.13 | 44 | 1010.7 |
| 20260508225508 | 12 | 80 | 0.0 | 1.6 | 0.00 | 0.13 | 0.13 | 43 | 1010.7 |
| 20260508225004 | 12 | 83 | 1.6 | 1.6 | 0.00 | 0.13 | 0.13 | 40 | 1010.7 |
| 20260508224502 | 12 | 83 | 1.6 | 1.6 | 0.00 | 0.13 | 0.13 | 45 | 1010.6 |
| 20260508223959 | 12 | 84 | 3.2 | 4.8 | 0.00 | 0.13 | 0.13 | 44 | 1010.7 |
| 20260508223457 | 12 | 58 | 1.6 | 4.8 | 0.00 | 0.13 | 0.13 | 45 | 1010.7 |
| 20260508222954 | 12 | 23 | 0.0 | 3.2 | 0.00 | 0.13 | 0.13 | 42 | 1010.5 |
| 20260508222452 | 12 | 16 | 0.0 | 0.0 | 0.00 | 0.13 | 0.13 | 41 | 1010.6 |
| 20260508221948 | 12 | 16 | 1.6 | 1.6 | 0.00 | 0.13 | 0.13 | 42 | 1010.8 |
| 20260508221444 | 12 | 6 | 1.6 | 1.6 | 0.00 | 0.13 | 0.13 | 41 | 1010.7 |
| 20260508220940 | 12 | 6 | 0.0 | 0.0 | 0.00 | 0.13 | 0.13 | 39 | 1010.8 |
| 20260508220437 | 12 | 6 | 0.0 | 3.2 | 0.00 | 0.13 | 0.13 | 39 | 1010.6 |
| 20260508215933 | 12 | 0 | 4.8 | 4.8 | 0.00 | 0.13 | 0.13 | 37 | 1010.9 |
| 20260508215431 | 12 | 353 | 0.0 | 3.2 | 0.00 | 0.13 | 0.13 | 40 | 1010.9 |
| 20260508214927 | 12 | 343 | 0.0 | 1.6 | 0.00 | 0.13 | 0.13 | 42 | 1010.8 |
| 20260508214425 | 12 | 343 | 0.0 | 1.6 | 0.00 | 0.13 | 0.13 | 39 | 1010.8 |
| 20260508213920 | 12 | 341 | 1.6 | 1.6 | 0.00 | 0.13 | 0.13 | 42 | 1010.8 |
| 20260508213418 | 12 | 341 | 0.0 | 3.2 | 0.00 | 0.13 | 0.13 | 42 | 1010.9 |
| 20260508212913 | 12 | 339 | 3.2 | 4.8 | 0.00 | 0.13 | 0.13 | 37 | 1011.0 |
| 20260508212410 | 12 | 31 | 3.2 | 6.4 | 0.00 | 0.13 | 0.13 | 41 | 1010.8 |
| 20260508211906 | 12 | 59 | 0.0 | 1.6 | 0.00 | 0.13 | 0.13 | 40 | 1011.0 |
| 20260508211402 | 12 | 323 | 0.0 | 1.6 | 0.00 | 0.13 | 0.13 | 39 | 1010.8 |
| 20260508210900 | 13 | 351 | 6.4 | 9.7 | 0.00 | 0.13 | 0.13 | 38 | 1010.9 |
| 20260508210356 | 13 | 26 | 3.2 | 4.8 | 0.00 | 0.13 | 0.13 | 40 | 1010.8 |
| 20260508205852 | 13 | 16 | 0.0 | 3.2 | 0.00 | 0.13 | 0.13 | 42 | 1011.0 |
| 20260508205349 | 12 | 28 | 6.4 | 6.4 | 0.00 | 0.13 | 0.13 | 37 | 1011.0 |
| 20260508204845 | 12 | 19 | 1.6 | 4.8 | 0.00 | 0.13 | 0.13 | 37 | 1011.3 |
| 20260508204343 | 12 | 347 | 1.6 | 3.2 | 0.00 | 0.13 | 0.13 | 38 | 1011.3 |
| 20260508203838 | 12 | 23 | 1.6 | 3.2 | 0.00 | 0.13 | 0.13 | 42 | 1011.1 |
| 20260508203335 | 12 | 77 | 1.6 | 1.6 | 0.00 | 0.13 | 0.13 | 43 | 1011.2 |
| 20260508202830 | 13 | 33 | 3.2 | 3.2 | 0.00 | 0.13 | 0.13 | 41 | 1011.3 |
| 20260508202328 | 13 | 14 | 6.4 | 6.4 | 0.00 | 0.13 | 0.13 | 38 | 1011.2 |
| 20260508201825 | 13 | 4 | 0.0 | 3.2 | 0.00 | 0.13 | 0.13 | 38 | 1011.3 |
| 20260508201322 | 13 | 23 | 3.2 | 4.8 | 0.00 | 0.13 | 0.13 | 40 | 1011.2 |
| 20260508200818 | 13 | 14 | 1.6 | 3.2 | 0.00 | 0.13 | 0.13 | 40 | 1011.5 |
| 20260508200315 | 13 | 349 | 3.2 | 6.4 | 0.00 | 0.13 | 0.13 | 35 | 1011.3 |
| 20260508195811 | 13 | 224 | 3.2 | 6.4 | 0.00 | 0.13 | 0.13 | 40 | 1011.4 |
| 20260508195308 | 12 | 7 | 0.0 | 0.0 | 0.00 | 0.13 | 0.13 | 48 | 1011.7 |
| 20260508194804 | 12 | 8 | 4.8 | 4.8 | 0.00 | 0.13 | 0.13 | 44 | 1011.8 |
| 20260508194301 | 12 | 358 | 0.0 | 4.8 | 0.00 | 0.13 | 0.13 | 41 | 1012.0 |
| 20260508193758 | 12 | 335 | 3.2 | 4.8 | 0.00 | 0.13 | 0.13 | 42 | 1012.0 |
| 20260508193255 | 12 | 338 | 3.2 | 3.2 | 0.00 | 0.13 | 0.13 | 45 | 1012.1 |
| 20260508192751 | 12 | 3 | 4.8 | 4.8 | 0.00 | 0.13 | 0.13 | 51 | 1012.1 |
| 20260508192248 | 12 | 344 | 4.8 | 6.4 | 0.00 | 0.13 | 0.13 | 52 | 1012.2 |
| 20260508191746 | 11 | 329 | 0.0 | 3.2 | 0.00 | 0.13 | 0.13 | 58 | 1012.3 |
| 20260508191243 | 11 | 328 | 3.2 | 4.8 | 0.00 | 0.13 | 0.13 | 61 | 1012.4 |
| 20260508190740 | 11 | 338 | 4.8 | 11.3 | 0.00 | 0.13 | 0.13 | 60 | 1012.5 |
| 20260508190236 | 11 | 333 | 6.4 | 9.7 | 0.00 | 0.13 | 0.13 | 63 | 1012.6 |
| 20260508185732 | 11 | 354 | 4.8 | 11.3 | 0.00 | 0.13 | 0.13 | 59 | 1012.4 |
| 20260508185230 | 11 | 20 | 4.8 | 6.4 | 0.00 | 0.13 | 0.13 | 61 | 1012.4 |
| 20260508184727 | 11 | 338 | 4.8 | 4.8 | 0.00 | 0.13 | 0.13 | 62 | 1012.5 |
| 20260508184224 | 11 | 353 | 4.8 | 4.8 | 0.00 | 0.13 | 0.13 | 65 | 1012.5 |
| 20260508183721 | 10 | 68 | 1.6 | 1.6 | 0.00 | 0.13 | 0.13 | 65 | 1012.3 |
| 20260508183217 | 11 | 51 | 1.6 | 12.9 | 0.00 | 0.13 | 0.13 | 67 | 1012.4 |
| 20260508182713 | 11 | 346 | 3.2 | 3.2 | 0.00 | 0.13 | 0.13 | 65 | 1012.2 |
| 20260508182210 | 10 | 330 | 3.2 | 3.2 | 0.00 | 0.13 | 0.13 | 69 | 1012.5 |
| 20260508181706 | 11 | 1 | 0.0 | 6.4 | 0.00 | 0.13 | 0.13 | 67 | 1012.6 |
| 20260508181203 | 10 | 11 | 3.2 | 4.8 | 0.00 | 0.13 | 0.13 | 66 | 1012.5 |
| 20260508180700 | 11 | 358 | 3.2 | 9.7 | 0.00 | 0.13 | 0.13 | 64 | 1012.5 |
| 20260508180157 | 10 | 42 | 4.8 | 6.4 | 0.00 | 0.13 | 0.13 | 66 | 1012.7 |
| 20260508175653 | 10 | 26 | 4.8 | 9.7 | 0.00 | 0.13 | 0.13 | 63 | 1012.5 |
| 20260508175149 | 11 | 357 | 6.4 | 9.7 | 0.00 | 0.13 | 0.13 | 62 | 1012.4 |
| 20260508174648 | 12 | 342 | 4.8 | 6.4 | 0.00 | 0.13 | 0.13 | 56 | 1012.5 |
| 20260508174144 | 12 | 228 | 1.6 | 4.8 | 0.00 | 0.13 | 0.13 | 45 | 1012.5 |
| 20260508173641 | 12 | 306 | 1.6 | 3.2 | 0.00 | 0.13 | 0.13 | 49 | 1012.4 |
| 20260508173137 | 11 | 297 | 1.6 | 4.8 | 0.00 | 0.13 | 0.13 | 45 | 1012.5 |
| 20260508172634 | 12 | 310 | 3.2 | 4.8 | 0.00 | 0.13 | 0.13 | 47 | 1012.5 |
| 20260508172131 | 12 | 313 | 0.0 | 3.2 | 0.00 | 0.13 | 0.13 | 47 | 1012.6 |
| 20260508171628 | 12 | 211 | 1.6 | 6.4 | 0.00 | 0.13 | 0.13 | 47 | 1012.6 |
| 20260508171124 | 12 | 250 | 3.2 | 3.2 | 0.00 | 0.13 | 0.13 | 53 | 1012.6 |
| 20260508170621 | 11 | 220 | 4.8 | 4.8 | 0.00 | 0.13 | 0.13 | 45 | 1012.7 |
| 20260508170119 | 11 | 232 | 1.6 | 6.4 | 0.00 | 0.13 | 0.13 | 50 | 1012.6 |
| 20260508165616 | 11 | 3 | 8.0 | 9.7 | 0.00 | 0.13 | 0.13 | 52 | 1012.7 |
| 20260508165113 | 11 | 181 | 6.4 | 6.4 | 0.00 | 0.13 | 0.13 | 51 | 1012.8 |
| 20260508164609 | 11 | 233 | 1.6 | 3.2 | 0.00 | 0.13 | 0.13 | 53 | 1012.8 |
| 20260508164106 | 11 | 259 | 4.8 | 4.8 | 0.00 | 0.13 | 0.13 | 55 | 1012.8 |
| 20260508163603 | 11 | 237 | 4.8 | 4.8 | 0.00 | 0.13 | 0.13 | 57 | 1013.0 |
| 20260508163100 | 10 | 224 | 6.4 | 6.4 | 0.00 | 0.13 | 0.13 | 59 | 1013.1 |
| 20260508162556 | 11 | 246 | 3.2 | 4.8 | 0.00 | 0.13 | 0.13 | 56 | 1013.0 |
| 20260508162054 | 10 | 256 | 1.6 | 4.8 | 0.00 | 0.13 | 0.13 | 56 | 1013.1 |
| 20260508161550 | 10 | 230 | 0.0 | 1.6 | 0.00 | 0.13 | 0.13 | 57 | 1013.1 |
| 20260508161048 | 11 | 225 | 1.6 | 6.4 | 0.00 | 0.13 | 0.13 | 51 | 1013.2 |
| 20260508160546 | 11 | 228 | 3.2 | 4.8 | 0.00 | 0.13 | 0.13 | 56 | 1013.3 |
| 20260508160043 | 11 | 285 | 3.2 | 3.2 | 0.00 | 0.13 | 0.13 | 57 | 1013.2 |
| 20260508155540 | 10 | 148 | 0.0 | 1.6 | 0.00 | 0.13 | 0.13 | 64 | 1013.4 |
| 20260508155037 | 10 | 230 | 1.6 | 1.6 | 0.00 | 0.13 | 0.13 | 60 | 1013.4 |
| 20260508154534 | 10 | 227 | 3.2 | 3.2 | 0.00 | 0.13 | 0.13 | 62 | 1013.4 |
| 20260508154031 | 10 | 225 | 3.2 | 6.4 | 0.00 | 0.13 | 0.13 | 59 | 1013.6 |
| 20260508153527 | 9 | 257 | 0.0 | 1.6 | 0.00 | 0.13 | 0.13 | 60 | 1013.5 |
| 20260508153024 | 9 | 250 | 3.2 | 3.2 | 0.00 | 0.13 | 0.13 | 61 | 1013.6 |
| 20260508152521 | 8 | 239 | 0.0 | 0.0 | 0.00 | 0.13 | 0.13 | 69 | 1013.6 |
| 20260508152017 | 8 | 239 | 1.6 | 1.6 | 0.00 | 0.13 | 0.13 | 65 | 1013.4 |
| 20260508151514 | 8 | 301 | 3.2 | 3.2 | 0.00 | 0.13 | 0.13 | 65 | 1013.2 |
| 20260508151010 | 8 | 295 | 3.2 | 3.2 | 0.00 | 0.13 | 0.13 | 59 | 1013.3 |
| 20260508150508 | 9 | 234 | 3.2 | 3.2 | 0.00 | 0.13 | 0.13 | 66 | 1013.3 |
| 20260508150004 | 8 | 294 | 0.0 | 1.6 | 0.00 | 0.13 | 0.13 | 72 | 1013.5 |
| 20260508145500 | 8 | 216 | 1.6 | 1.6 | 0.00 | 0.13 | 0.13 | 72 | 1013.5 |
| 20260508144956 | 8 | 212 | 3.2 | 4.8 | 0.00 | 0.13 | 0.13 | 72 | 1013.5 |
| 20260508144454 | 8 | 250 | 1.6 | 3.2 | 0.00 | 0.13 | 0.13 | 74 | 1013.2 |
| 20260508143951 | 8 | 260 | 0.0 | 4.8 | 0.00 | 0.13 | 0.13 | 74 | 1013.2 |
| 20260508143449 | 8 | 227 | 4.8 | 4.8 | 0.00 | 0.13 | 0.13 | 72 | 1013.5 |
| 20260508142945 | 8 | 241 | 1.6 | 3.2 | 0.00 | 0.13 | 0.13 | 77 | 1013.4 |
| 20260508142442 | 8 | 238 | 1.6 | 3.2 | 0.00 | 0.13 | 0.13 | 79 | 1013.3 |
| 20260508141938 | 8 | 226 | 6.4 | 9.7 | 0.00 | 0.13 | 0.13 | 79 | 1013.4 |
| 20260508141435 | 7 | 252 | 3.2 | 3.2 | 0.00 | 0.13 | 0.13 | 79 | 1013.3 |
| 20260508140933 | 7 | 229 | 3.2 | 4.8 | 0.00 | 0.13 | 0.13 | 81 | 1013.2 |
| 20260508140430 | 7 | 232 | 4.8 | 4.8 | 0.00 | 0.13 | 0.13 | 79 | 1013.3 |
| 20260508135925 | 7 | 263 | 1.6 | 1.6 | 0.00 | 0.13 | 0.13 | 83 | 1013.2 |
| 20260508135422 | 6 | 264 | 0.0 | 3.2 | 0.00 | 0.13 | 0.13 | 84 | 1013.3 |
| 20260508134919 | 6 | 246 | 0.0 | 1.6 | 0.00 | 0.13 | 0.13 | 83 | 1013.3 |
| 20260508134415 | 7 | 288 | 3.2 | 3.2 | 0.00 | 0.13 | 0.13 | 82 | 1013.3 |
| 20260508133912 | 7 | 241 | 1.6 | 3.2 | 0.00 | 0.13 | 0.13 | 85 | 1013.2 |
| 20260508133410 | 7 | 235 | 3.2 | 6.4 | 0.00 | 0.13 | 0.13 | 83 | 1013.1 |
| 20260508132906 | 7 | 233 | 3.2 | 3.2 | 0.00 | 0.13 | 0.13 | 85 | 1013.2 |
| 20260508132405 | 6 | 231 | 1.6 | 1.6 | 0.00 | 0.13 | 0.13 | 91 | 1013.1 |
| 20260508131901 | 6 | 233 | 1.6 | 1.6 | 0.00 | 0.13 | 0.13 | 88 | 1012.9 |
| 20260508131356 | 6 | 238 | 1.6 | 4.8 | 0.00 | 0.13 | 0.13 | 90 | 1013.1 |
| 20260508130853 | 5 | 291 | 4.8 | 4.8 | 0.00 | 0.13 | 0.13 | 90 | 1013.4 |
| 20260508130350 | 5 | 323 | 1.6 | 1.6 | 0.00 | 0.13 | 0.13 | 93 | 1013.4 |
| 20260508125846 | 5 | 326 | 0.0 | 3.2 | 0.00 | 0.13 | 0.13 | 94 | 1013.3 |
| 20260508125342 | 4 | 14 | 1.6 | 3.2 | 0.00 | 0.13 | 0.13 | 96 | 1013.4 |
| 20260508124840 | 3 | 14 | 1.6 | 1.6 | 0.18 | 0.13 | 0.13 | 95 | 1013.4 |
| 20260508124337 | 3 | 14 | 0.0 | 0.0 | 0.18 | 0.13 | 0.13 | 94 | 1013.4 |
| 20260508123836 | 3 | 14 | 1.6 | 1.6 | 0.18 | 0.10 | 0.10 | 94 | 1013.6 |
| 20260508123334 | 3 | 14 | 0.0 | 0.0 | 0.48 | 0.10 | 0.10 | 93 | 1013.5 |
| 20260508122830 | 4 | 359 | 1.6 | 3.2 | 0.18 | 0.05 | 0.05 | 90 | 1013.5 |
| 20260508122327 | 5 | 350 | 3.2 | 6.4 | 0.00 | 0.03 | 0.03 | 87 | 1013.7 |
| 20260508121824 | 5 | 307 | 3.2 | 3.2 | 0.00 | 0.03 | 0.03 | 91 | 1013.4 |
| 20260508121322 | 5 | 308 | 1.6 | 3.2 | 0.00 | 0.03 | 0.03 | 91 | 1013.3 |
| 20260508120819 | 5 | 308 | 0.0 | 1.6 | 0.00 | 0.03 | 0.03 | 92 | 1013.3 |
| 20260508120317 | 5 | 308 | 1.6 | 1.6 | 0.13 | 0.03 | 0.03 | 92 | 1013.4 |
| 20260508115814 | 6 | 308 | 1.6 | 3.2 | 0.00 | 0.00 | 0.00 | 94 | 1013.2 |
| 20260508115312 | 6 | 308 | 0.0 | 1.6 | 0.00 | 0.00 | 0.00 | 95 | 1013.1 |
| 20260508114809 | 5 | 308 | 0.0 | 3.2 | 0.00 | 0.00 | 0.00 | 95 | 1013.0 |
| 20260508114306 | 5 | 308 | 0.0 | 0.0 | 0.00 | 0.00 | 0.00 | 96 | 1013.1 |
| 20260508113802 | 5 | 308 | 0.0 | 0.0 | 0.00 | 0.00 | 0.00 | 96 | 1012.9 |
| 20260508113300 | 5 | 308 | 0.0 | 0.0 | 0.00 | 0.00 | 0.00 | 97 | 1012.8 |
| 20260508112756 | 5 | 308 | 0.0 | 0.0 | 0.00 | 0.00 | 0.00 | 97 | 1012.6 |